| time (UTC) | temp C | wind direction | speed KPH | gust KPH | rain 1hr cm | rain 24hr cm | rain mn cm | humidity % | barometer mb |
| 20260505221024 | 16 | 302 | 1.6 | 12.9 | 0.00 | 0.30 | 0.30 | 87 | 1005.2 |
| 20260505215523 | 16 | 198 | 0.0 | 0.0 | 0.00 | 0.30 | 0.30 | 91 | 1005.3 |
| 20260505214755 | 16 | 198 | 0.0 | 6.4 | 0.03 | 0.30 | 0.30 | 90 | 1005.0 |
| 20260505212522 | 16 | 196 | 3.2 | 8.0 | 0.18 | 0.30 | 0.30 | 91 | 1004.6 |
| 20260505211023 | 16 | 196 | 0.0 | 9.7 | 0.30 | 0.30 | 0.30 | 91 | 1004.2 |
| 20260505205520 | 16 | 60 | 0.0 | 6.4 | 0.30 | 0.30 | 0.30 | 88 | 1004.5 |
| 20260505204021 | 17 | 327 | 6.4 | 32.2 | 0.28 | 0.28 | 0.28 | 81 | 1005.0 |
| 20260505202516 | 20 | 342 | 14.5 | 38.6 | 0.13 | 0.13 | 0.15 | 68 | 1004.4 |
| 20260505201015 | 25 | 111 | 4.8 | 20.9 | 0.00 | 0.00 | 0.00 | 35 | 1002.1 |
| 20260505195514 | 25 | 221 | 6.4 | 29.0 | 0.00 | 0.00 | 0.00 | 34 | 1001.9 |
| 20260505194014 | 25 | 173 | 6.4 | 25.7 | 0.00 | 0.00 | 0.00 | 34 | 1001.6 |
| 20260505192512 | 26 | 57 | 8.0 | 41.8 | 0.00 | 0.00 | 0.00 | 34 | 1002.3 |
| 20260505191012 | 26 | 155 | 9.7 | 35.4 | 0.00 | 0.00 | 0.00 | 33 | 1001.6 |
| 20260505185513 | 26 | 204 | 8.0 | 32.2 | 0.00 | 0.00 | 0.00 | 35 | 1002.1 |
| 20260505184738 | 26 | 284 | 9.7 | 29.0 | 0.00 | 0.00 | 0.00 | 33 | 1002.6 |
| 20260505182507 | 26 | 138 | 8.0 | 27.4 | 0.00 | 0.00 | 0.00 | 33 | 1002.3 |
| 20260505181002 | 27 | 277 | 4.8 | 22.5 | 0.00 | 0.00 | 0.00 | 34 | 1002.4 |
| 20260505175500 | 27 | 130 | 12.9 | 33.8 | 0.00 | 0.00 | 0.00 | 33 | 1002.7 |
| 20260505173955 | 27 | 246 | 9.7 | 32.2 | 0.00 | 0.00 | 0.00 | 34 | 1002.9 |
| 20260505172456 | 26 | 90 | 11.3 | 35.4 | 0.00 | 0.00 | 0.00 | 33 | 1003.4 |
| 20260505170948 | 26 | 10 | 9.7 | 37.0 | 0.00 | 0.00 | 0.00 | 34 | 1003.1 |
| 20260505165448 | 25 | 191 | 9.7 | 30.6 | 0.00 | 0.00 | 0.00 | 37 | 1003.4 |
| 20260505163943 | 25 | 355 | 9.7 | 38.6 | 0.00 | 0.00 | 0.00 | 39 | 1003.7 |
| 20260505163213 | 25 | 150 | 11.3 | 41.8 | 0.00 | 0.00 | 0.00 | 37 | 1003.6 |
| 20260505160938 | 25 | 67 | 12.9 | 37.0 | 0.00 | 0.00 | 0.00 | 38 | 1004.0 |
| 20260505152438 | 23 | 338 | 12.9 | 30.6 | 0.00 | 0.00 | 0.00 | 45 | 1005.1 |
| 20260505150937 | 23 | 149 | 6.4 | 29.0 | 0.00 | 0.00 | 0.00 | 46 | 1005.1 |
| 20260505123935 | 14 | 190 | 3.2 | 9.7 | 0.00 | 0.00 | 0.00 | 72 | 1005.6 |
| 20260505122432 | 8 | 322 | 0.0 | 0.0 | 0.00 | 0.00 | 0.00 | 91 | 1006.1 |
| 20260505122428 | 11 | 170 | 1.6 | 11.3 | 0.00 | 0.00 | 0.00 | 85 | 1005.8 |
| 20260505115429 | 7 | 322 | 0.0 | 0.0 | 0.00 | 0.00 | 0.00 | 92 | 1006.1 |
| 20260505113928 | 7 | 322 | 0.0 | 0.0 | 0.00 | 0.00 | 0.00 | 94 | 1006.2 |
| 20260505112425 | 6 | 322 | 0.0 | 0.0 | 0.00 | 0.00 | 0.00 | 96 | 1006.4 |
| 20260505110925 | 6 | 322 | 0.0 | 0.0 | 0.00 | 0.00 | 0.00 | 95 | 1006.5 |
| 20260505100924 | 4 | 322 | 0.0 | 0.0 | 0.00 | 0.00 | 0.00 | 95 | 1006.0 |
| 20260505095423 | 4 | 322 | 0.0 | 0.0 | 0.00 | 0.00 | 0.00 | 94 | 1005.9 |
| 20260505093923 | 4 | 322 | 0.0 | 0.0 | 0.00 | 0.00 | 0.00 | 94 | 1006.0 |
| 20260505092422 | 4 | 322 | 0.0 | 0.0 | 0.00 | 0.00 | 0.00 | 94 | 1006.1 |
| 20260505090922 | 4 | 322 | 0.0 | 0.0 | 0.00 | 0.00 | 0.00 | 94 | 1006.3 |
| 20260505085415 | 4 | 322 | 0.0 | 0.0 | 0.00 | 0.00 | 0.00 | 94 | 1006.4 |
| 20260505083917 | 3 | 322 | 0.0 | 0.0 | 0.00 | 0.00 | 0.00 | 93 | 1006.6 |
| 20260505082409 | 4 | 322 | 0.0 | 0.0 | 0.00 | 0.00 | 0.00 | 94 | 1006.6 |
| 20260505080910 | 4 | 322 | 0.0 | 0.0 | 0.00 | 0.00 | 0.00 | 93 | 1006.3 |
| 20260505075404 | 4 | 322 | 0.0 | 0.0 | 0.00 | 0.00 | 0.00 | 93 | 1006.3 |
| 20260505073904 | 4 | 322 | 0.0 | 0.0 | 0.00 | 0.00 | 0.00 | 92 | 1006.3 |
| 20260505072357 | 4 | 322 | 0.0 | 0.0 | 0.00 | 0.00 | 0.00 | 92 | 1006.4 |
| 20260505071630 | 4 | 322 | 0.0 | 0.0 | 0.00 | 0.00 | 0.00 | 92 | 1006.5 |
| 20260505065356 | 4 | 322 | 0.0 | 0.0 | 0.00 | 0.00 | 0.00 | 91 | 1006.5 |
| 20260505063852 | 5 | 322 | 0.0 | 0.0 | 0.00 | 0.00 | 0.00 | 91 | 1006.6 |
| 20260505062352 | 5 | 322 | 0.0 | 0.0 | 0.00 | 0.00 | 0.00 | 91 | 1006.5 |
| 20260505060851 | 5 | 322 | 0.0 | 0.0 | 0.00 | 0.03 | 0.00 | 90 | 1006.6 |
| 20260505055350 | 5 | 322 | 0.0 | 0.0 | 0.00 | 0.03 | 0.00 | 89 | 1006.7 |
| 20260505053851 | 5 | 322 | 0.0 | 0.0 | 0.00 | 0.03 | 0.00 | 89 | 1006.7 |
| 20260505053124 | 5 | 322 | 0.0 | 0.0 | 0.00 | 0.03 | 0.00 | 88 | 1006.8 |
| 20260505050846 | 6 | 322 | 0.0 | 0.0 | 0.00 | 0.03 | 0.00 | 87 | 1006.8 |
| 20260505040842 | 7 | 322 | 0.0 | 0.0 | 0.00 | 0.03 | 0.00 | 84 | 1006.6 |
| 20260505040112 | 7 | 322 | 0.0 | 0.0 | 0.00 | 0.03 | 0.03 | 84 | 1006.5 |
| 20260505033840 | 7 | 322 | 0.0 | 1.6 | 0.00 | 0.03 | 0.03 | 83 | 1006.5 |
| 20260505033107 | 7 | 322 | 0.0 | 0.0 | 0.00 | 0.03 | 0.03 | 82 | 1006.3 |
| 20260505030837 | 8 | 322 | 0.0 | 0.0 | 0.00 | 0.03 | 0.03 | 80 | 1006.3 |
| 20260505025329 | 8 | 322 | 0.0 | 0.0 | 0.00 | 0.03 | 0.03 | 80 | 1006.3 |
| 20260505023830 | 9 | 322 | 0.0 | 0.0 | 0.00 | 0.03 | 0.03 | 79 | 1006.2 |
| 20260505022328 | 9 | 322 | 0.0 | 0.0 | 0.00 | 0.03 | 0.03 | 78 | 1006.2 |
| 20260505020827 | 10 | 322 | 0.0 | 0.0 | 0.00 | 0.03 | 0.03 | 76 | 1006.3 |
| 20260505015329 | 10 | 322 | 0.0 | 0.0 | 0.00 | 0.03 | 0.03 | 74 | 1006.2 |
| 20260505014600 | 11 | 322 | 0.0 | 0.0 | 0.00 | 0.03 | 0.03 | 73 | 1006.2 |
| 20260505012328 | 11 | 322 | 0.0 | 0.0 | 0.00 | 0.03 | 0.03 | 70 | 1005.9 |
| 20260505010829 | 12 | 322 | 0.0 | 0.0 | 0.00 | 0.03 | 0.03 | 69 | 1005.9 |
| 20260505010058 | 12 | 322 | 0.0 | 0.0 | 0.00 | 0.03 | 0.03 | 66 | 1005.7 |
| 20260505003825 | 13 | 322 | 0.0 | 0.0 | 0.00 | 0.03 | 0.03 | 63 | 1005.4 |
| 20260505002319 | 15 | 322 | 0.0 | 0.0 | 0.00 | 0.03 | 0.03 | 58 | 1005.2 |
| 20260505000821 | 16 | 322 | 0.0 | 3.2 | 0.00 | 0.03 | 0.03 | 54 | 1005.1 |
| 20260505000049 | 17 | 99 | 0.0 | 8.0 | 0.00 | 0.03 | 0.03 | 46 | 1004.9 |
| 20260504233815 | 18 | 190 | 3.2 | 14.5 | 0.00 | 0.03 | 0.03 | 41 | 1004.7 |
| 20260504232317 | 18 | 210 | 0.0 | 12.9 | 0.00 | 0.03 | 0.03 | 40 | 1004.4 |
| 20260504230816 | 18 | 351 | 3.2 | 14.5 | 0.00 | 0.03 | 0.03 | 36 | 1004.2 |
| 20260504225315 | 18 | 219 | 1.6 | 14.5 | 0.00 | 0.03 | 0.03 | 43 | 1004.2 |
| 20260504223815 | 19 | 171 | 1.6 | 12.9 | 0.00 | 0.03 | 0.03 | 37 | 1003.9 |
| 20260504223046 | 19 | 315 | 1.6 | 29.0 | 0.00 | 0.03 | 0.03 | 35 | 1004.0 |